Regional Weather Roundup
Issued by NWS

Home | Current Version | Previous Version | Graphics & Text | Print | Product List | Glossary On
Versions: 1 2 3 4 5 6 7 8 9 10 11 12 13 14 15 16 17 18 19 20 21 22 23 24 25 26 27 28 29 30 31 32 33 34 35 36 37 38 39 40 41 42 43 44 45 46 47 48 49 50
000
ASUS43 KLMK 250702
RWRKY
KENTUCKY REGIONAL WEATHER ROUNDUP
NATIONAL WEATHER SERVICE LOUISVILLE KY
200 AM EST SUN FEB 25 2018

NOTE "FAIR" INDICATES FEW OR NO CLOUDS BELOW 12,000 FEET
WITH NO SIGNIFICANT WEATHER AND/OR OBSTRUCTIONS TO VISIBILITY.

KYZ001>023-026-027-061>063-070>075-250800-
WESTERN AND SOUTH CENTRAL KENTUCKY

CITY           SKY/WX    TMP DP  RH WIND       PRES   REMARKS
PADUCAH        FAIR      59  52  77 W17G29    29.83R
HENDERSON      CLOUDY    61  53  75 W16G25    29.77R
OWENSBORO      CLOUDY    61  57  87 SW17      29.77R
HOPKINSVILLE   CLOUDY    55  54  94 SW17      29.84R
BOWLING GREEN  LGT RAIN  58  55  90 SW13      29.83F
GLASGOW        NOT AVBL
$$

KYZ024-025-028>034-038-045-046-053-250800-
NORTH CENTRAL KENTUCKY

CITY           SKY/WX    TMP DP  RH WIND       PRES   REMARKS
LOUISVILLE/SDF LGT RAIN  62  57  83 S13       29.71F
LOUISVILLE/LOU LGT RAIN  62  59  90 MISG      29.73F
FORT KNOX      LGT RAIN  59  59 100 S13       29.77F
$$

KYZ035>037-039>044-047>052-055>060-089>105-250800-
NORTHEAST KENTUCKY

CITY           SKY/WX    TMP DP  RH WIND       PRES   REMARKS
LEXINGTON      LGT RAIN  62  56  80 SW12      29.81F
COVINGTON      LGT RAIN  57  56  96 S16       29.72F
FRANKFORT      RAIN      61  56  83 SW10      29.78F
$$

KYZ054-064>069-076>088-106>120-250800-
SOUTHEAST KENTUCKY

CITY           SKY/WX    TMP DP  RH WIND       PRES   REMARKS
JACKSON        CLOUDY    65  57  75 SW6       29.83F
LONDON         HVY RAIN  58  55  90 W25G45    29.91R FOG
SOMERSET       NOT AVBL
MIDDLESBORO    CLOUDY    65  60  86 S9G17     29.92F
MONTICELLO     RAIN      58  56  93 SW12G22   29.93R
$$





USA.gov is the U.S. government's official web portal to all federal, state and local government web resources and services.